Date String (YYYY-MM-DD hh:mm:ss) UTC,Instrument flags,Ambient pressure (hPa),Sample flow (lpm),Bypass flow (lpm),Sample temperature (°C),Ambient temperature (°C),ASC tube jacket temperature (°C),LED temperature (°C),Box temperature (°C),Sample RH (%),Span deviation,Mass concentration (μg/m³),Mass concentration (μg/m³),Mass concentration (μg/m³)
DateTimeUTC,F1_M11,P_M11,Q1_M11,Q2_M11,T1_M11,T2_M11,T3_M11,T4_M11,T5_M11,U1_M11,ZSPAN_M11,X2_M11,X0_M11,X1_M11
2021-12-05 10:00:00,,0819.3,4.98,0.00,25.6,24.8,00.0,34.7,27.3,07.9,0000.0,0000.94,0001.52,0000.73
2021-12-05 10:01:00,,0819.4,5.00,0.00,25.6,24.8,00.0,34.7,27.3,07.8,0000.0,0000.94,0001.56,0000.74
2021-12-05 10:02:00,,0819.2,5.00,0.00,25.6,24.9,00.0,34.7,27.4,07.8,0000.0,0000.92,0001.57,0000.73
2021-12-05 10:03:00,,0819.1,4.99,0.00,25.6,24.9,00.0,34.7,27.4,07.7,0000.0,0000.92,0001.44,0000.73
2021-12-05 10:04:00,,0819.1,4.99,0.00,25.7,24.9,00.0,34.7,27.4,07.4,0000.0,0000.93,0001.47,0000.73
2021-12-05 10:05:00,,0819.2,5.01,0.00,25.7,24.9,00.0,34.7,27.4,07.6,0000.0,0000.92,0001.44,0000.73
2021-12-05 10:06:00,,0819.1,4.99,0.00,25.6,24.9,00.0,34.7,27.4,07.5,0000.0,0000.89,0001.34,0000.73
2021-12-05 10:07:00,,0819.1,5.00,0.00,25.6,24.8,00.0,34.7,27.4,07.5,0000.0,0000.88,0001.35,0000.73
2021-12-05 10:08:00,,0819.0,5.01,0.00,25.6,24.8,00.0,34.7,27.3,07.5,0000.0,0000.91,0001.44,0000.73
2021-12-05 10:09:00,,0819.0,4.99,0.00,25.6,24.8,00.0,34.7,27.3,07.5,0000.0,0000.91,0001.50,0000.72
2021-12-05 10:10:00,,0819.0,5.00,0.00,25.6,24.8,00.0,34.7,27.3,07.5,0000.0,0000.89,0001.48,0000.71
2021-12-05 10:11:00,,0819.0,5.00,0.00,25.5,24.8,00.0,34.6,27.2,07.5,0000.0,0000.90,0001.41,0000.72
2021-12-05 10:12:00,,0819.0,5.00,0.00,25.6,24.8,00.0,34.6,27.2,07.5,0000.0,0000.91,0001.37,0000.72
2021-12-05 10:13:00,,0818.9,4.99,0.00,25.6,24.7,00.0,34.6,27.2,07.5,0000.0,0000.95,0001.47,0000.73
2021-12-05 10:14:00,,0818.9,5.00,0.00,25.6,24.7,00.0,34.6,27.2,07.6,0000.0,0000.94,0001.45,0000.73
2021-12-05 10:15:00,,0818.7,5.01,0.00,25.6,24.7,00.0,34.6,27.3,07.4,0000.0,0000.94,0002.59,0000.73
2021-12-05 10:16:00,,0818.7,5.00,0.00,25.6,24.7,00.0,34.6,27.3,07.3,0000.0,0001.01,0003.43,0000.74
2021-12-05 10:17:00,,0818.7,4.98,0.00,25.6,24.7,00.0,34.6,27.3,07.3,0000.0,0001.05,0003.76,0000.73
2021-12-05 10:18:00,,0818.7,5.00,0.00,25.6,24.7,00.0,34.6,27.3,07.4,0000.0,0001.09,0004.14,0000.73
2021-12-05 10:19:00,,0818.7,5.01,0.00,25.6,24.7,00.0,34.6,27.3,07.3,0000.0,0001.08,0004.17,0000.73
2021-12-05 10:20:00,,0818.8,4.99,0.00,25.6,24.7,00.0,34.6,27.3,07.4,0000.0,0001.10,0004.17,0000.73
2021-12-05 10:21:00,,0818.8,5.00,0.00,25.5,24.7,00.0,34.6,27.3,07.3,0000.0,0001.10,0004.17,0000.73
2021-12-05 10:22:00,,0818.9,5.00,0.00,25.5,24.7,00.0,34.6,27.2,07.2,0000.0,0001.08,0004.15,0000.71
2021-12-05 10:23:00,,0818.9,5.01,0.00,25.5,24.7,00.0,34.6,27.2,07.4,0000.0,0001.07,0005.16,0000.69
2021-12-05 10:24:00,,0818.9,5.00,0.00,25.5,24.7,00.0,34.6,27.2,07.4,0000.0,0001.03,0005.55,0000.68
2021-12-05 10:25:00,,0818.9,4.99,0.00,25.6,24.7,00.0,34.6,27.3,07.6,0000.0,0001.04,0005.60,0000.67
2021-12-05 10:26:00,,0818.9,5.01,0.00,25.6,24.8,00.0,34.6,27.3,07.7,0000.0,0001.10,0004.95,0000.69
2021-12-05 10:27:00,,0819.0,5.01,0.00,25.6,24.8,00.0,34.6,27.3,07.6,0000.0,0001.08,0003.98,0000.68
2021-12-05 10:28:00,,0818.9,4.99,0.00,25.6,24.8,00.0,34.6,27.3,07.6,0000.0,0001.08,0004.03,0000.69
2021-12-05 10:29:00,,0818.9,5.00,0.00,25.6,24.7,00.0,34.6,27.3,07.6,0000.0,0001.04,0003.76,0000.69
2021-12-05 10:30:00,,0818.6,5.01,0.00,25.6,24.8,00.0,34.6,27.4,07.6,0000.0,0001.06,0004.45,0000.71
2021-12-05 10:31:00,,0818.4,5.00,0.00,25.6,24.8,00.0,34.6,27.4,07.5,0000.0,0001.06,0004.82,0000.72
2021-12-05 10:32:00,,0818.8,5.00,0.00,25.6,24.9,00.0,34.6,27.4,07.3,0000.0,0001.08,0004.85,0000.72
2021-12-05 10:33:00,,0818.8,5.00,0.00,25.6,24.9,00.0,34.6,27.4,07.3,0000.0,0001.09,0005.36,0000.72
2021-12-05 10:34:00,,0818.7,5.00,0.00,25.6,24.9,00.0,34.6,27.4,07.4,0000.0,0001.08,0005.31,0000.73
2021-12-05 10:35:00,,0818.7,5.01,0.00,25.6,24.9,00.0,34.6,27.4,07.2,0000.0,0001.07,0004.70,0000.73
2021-12-05 10:36:00,,0818.8,4.98,0.00,25.6,24.9,00.0,34.6,27.4,07.4,0000.0,0001.07,0005.02,0000.74
2021-12-05 10:37:00,,0818.9,5.01,0.00,25.6,24.9,00.0,34.6,27.4,07.7,0000.0,0001.03,0004.87,0000.73
2021-12-05 10:38:00,,0818.9,5.00,0.00,25.7,24.8,00.0,34.6,27.4,07.8,0000.0,0001.04,0004.87,0000.74
2021-12-05 10:39:00,,0818.8,4.99,0.00,25.6,24.8,00.0,34.6,27.3,07.7,0000.0,0000.99,0004.45,0000.73
2021-12-05 10:40:00,,0818.8,4.99,0.00,25.6,24.8,00.0,34.6,27.3,07.2,0000.0,0000.98,0004.36,0000.73
2021-12-05 10:41:00,,0818.8,5.01,0.00,25.6,24.8,00.0,34.6,27.3,07.1,0000.0,0000.97,0003.57,0000.71
2021-12-05 10:42:00,,0818.8,5.00,0.00,25.6,24.8,00.0,34.6,27.2,07.1,0000.0,0000.94,0003.72,0000.69
2021-12-05 10:43:00,,0818.8,4.99,0.00,25.6,24.8,00.0,34.6,27.3,07.0,0000.0,0000.94,0004.14,0000.68
2021-12-05 10:44:00,,0818.8,5.01,0.00,25.6,24.8,00.0,34.6,27.2,07.0,0000.0,0000.91,0003.58,0000.67
2021-12-05 10:45:00,,0818.6,5.00,0.00,25.6,24.7,00.0,34.6,27.2,07.1,0000.0,0000.90,0002.75,0000.67
2021-12-05 10:46:00,,0818.5,5.00,0.00,25.6,24.7,00.0,34.6,27.3,07.0,0000.0,0000.92,0002.76,0000.67
2021-12-05 10:47:00,,0818.3,5.02,0.00,25.6,24.7,00.0,34.6,27.3,07.1,0000.0,0000.91,0002.55,0000.66
2021-12-05 10:48:00,,0818.3,5.01,0.00,25.6,24.7,00.0,34.6,27.3,07.1,0000.0,0000.87,0002.61,0000.65
2021-12-05 10:49:00,,0818.4,5.00,0.00,25.6,24.7,00.0,34.6,27.4,07.1,0000.0,0000.84,0002.61,0000.63
2021-12-05 10:50:00,,0818.5,5.00,0.00,25.6,24.7,00.0,34.6,27.3,07.1,0000.0,0000.88,0002.78,0000.62
2021-12-05 10:51:00,,0818.3,5.00,0.00,25.6,24.7,00.0,34.6,27.2,07.1,0000.0,0000.88,0002.83,0000.61
2021-12-05 10:52:00,,0818.4,5.00,0.00,25.6,24.7,00.0,34.6,27.2,06.9,0000.0,0000.85,0002.78,0000.61
2021-12-05 10:53:00,,0818.4,5.00,0.00,25.5,24.7,00.0,34.6,27.2,07.0,0000.0,0000.87,0002.45,0000.61
2021-12-05 10:54:00,,0818.4,4.99,0.00,25.5,24.6,00.0,34.6,27.2,07.0,0000.0,0000.86,0001.85,0000.61
2021-12-05 10:55:00,,0818.4,5.00,0.00,25.5,24.6,00.0,34.6,27.2,07.1,0000.0,0000.87,0001.90,0000.61
2021-12-05 10:56:00,,0818.5,5.01,0.00,25.5,24.6,00.0,34.6,27.2,07.2,0000.0,0000.90,0002.09,0000.61
2021-12-05 10:57:00,,0818.6,4.99,0.00,25.5,24.6,00.0,34.6,27.2,07.3,0000.0,0000.89,0002.02,0000.61
2021-12-05 10:58:00,,0818.6,5.01,0.00,25.5,24.6,00.0,34.6,27.2,07.1,0000.0,0000.86,0001.87,0000.60
2021-12-05 10:59:00,,0818.6,5.00,0.00,25.4,24.6,00.0,34.5,27.2,07.0,0000.0,0000.88,0002.43,0000.60
